AQI (30)

Current Conditions for Foresthill, CA. Sunny, Dry   
Visibility: 10 miles
Space WX Alerts: WARNING:  Geomagnetic K-index of 4 expected ( Latest Alert ) - Issue Time: 2018 May 23 0740 UTC

  Summary / Temperature 

Current Temperature
49.8°F
9.9°C
(24/hr Ago)
46.3°F
(Apparent temp)
48.9°F
Cool
Wind Chill Graphs
49.8°F 

50.4°F/ 10.2°C
 --- Virtual Temp: 52.1°F ---

 Temp Rate:

 24/hr Difference:

 Avg Running Temp:

 Todays High:

 Todays Low:

 Y-days High:

 Y-days Low:

 Todays WChill:

 Y-days WChill:

 Evapotranspiration:

+0.1°F/hr 

+3.5°F

49.7°F

51.9°F 1:30am

49.2°F 3:36am

58.2°F 4:40pm

45.4°F 1:13am

45.2°F 5:14am

43.2°F 1:56am

0.000 in

115' Above Ground

 Temperature:

 6'AGL VRS 115'AGL:

 Avg Running Temp:

 Humidity:

 Todays High:

 Todays Low:

 Y-days High:

 Y-days Low:

57.0°F 

+7.2°F

54.1°F

62% 

57.0°F 6:16am

52.0°F 2:54am

59.0°F 4:25pm

46.0°F 3:24am

Temp & Humidity Graphs

  Wind 

Wind Speed

 Calm

Gusting to

 6.0 mph

Calm

86°  

Calm

 Avg speed:

 Wind Run:

 Peak Gust:

Calm 

16.0 miles

  12.0 mph 5:09am

  Almanac  

Moon age: 12 days,19 hours,56 minutes,96%

Waxing Gibbous
96%
Illuminated
12 days in cycle

 Moonrise:

 Moonset:

 Sunrise:

 Sunset:

 Solar Noon:

6:35pm

4:51am

5:40am

8:18pm

1:01pm

1min 22s more daylight tomorrow 

  Solar Radiation 

(Current Solar)
  72 W/m2 (150%)
(Todays High)
 67 W/m2@6:24am
Feels like: 53.2°F in the sun

Rain

 Rain Today:

 Rain Rate (/hr):

 Rain last hour:

 Rain Yesterday:

 This Month:

 Season Total:

1 Day Since Last Rain Day

0.00 in

0.000 in

0.00 in

0.00 in

0.47 in

42.45 in

Updated Time

Updated: 5/27/18  6:24am

(Updated  sec ago)

Humidity & Barometer

 Humidity:

 Wetbulb:

 Dew Point:

 Barometer:

87% 

47.9°F 

46.1°F 

30.009 inHg 

 Baro Trend:  Steady 
Northern Calif
Preparedness
Fire 
Level 

    UV Index  

(Current UV)
0.0  None
(Todays High) @ 12:00am
0.0   None

National Weather Service Forecast

Today

Sunny
Sunny
Tonight

Mostly Clear
Mostly Clear
Memorial
Day
Sunny
Sunny
Monday
Night
Mostly Clear
Mostly Clear
Tuesday

Sunny
Sunny
Tuesday
Night
Mostly Clear
Mostly Clear
Hi ≈78°F Lo ≈60°F Hi ≈86°F Lo ≈63°F Hi ≈86°F Lo ≈59°F

Foresthill Probe 2 Stats  
Foresthill Probe 2: is located on Thomas Street
at 3000 feet. The main Foresthill Weather site
is located on Melody ln at the 2860 foot elevation

Calm
48.0°F
8.9°C
Temp Rate:
-0.1°F
Calm
Gusting to
2.0 mph
(Humidity)
91%
Wind from SE
127°  SE
Updated: 27/05/18 - 06:21:46
 Todays High: 50.6°F 00:00
 Todays Low: 47.7°F 05:58
 Rain Today: 0.00 in
 Season Total: 44.79 in

Foresthill Wx: Monthly,Yearly, Highs and Lows 

Foresthill  
This Weather Data is coming from the main Foresthill
Weather site located on Melody ln at the 2860 foot
elevation
Not Foresthill Probe 2
Weather Data
Month
  High
Month
  Low
Year
High
Year
Low
Temp 78.4°F
5/8/18
42.8°F
5/1/18
78.7°F
4/24/18
21.9°F
2/23/18
Humidity 98%
5/25/18
18%
5/11/18
100%
1/8/18
15%
2/10/18
Heat Index 77.9°F
5/8/18
48.1°F
5/1/18
78.0°F
4/24/18
27.1°F
2/20/18
Wind Chill 78.4°F
5/8/18
39.8°F
5/1/18
78.7°F
4/24/18
9.2°F
2/23/18
Wind Gust 31 mph
5/11/18
0 mph
5/1/18
43 mph
3/1/18
0 mph
1/1/18
Barometer 30.26 in
5/4/18
29.73 in
5/11/18
30.55 in
1/27/18
29.63 in
1/9/18
ET 0.21 in
5/11/18
0.00 in
5/1/18
0.21 in
5/11/18
0.00 in
1/1/18
Dew Point 57.1°F
5/23/18
23.3°F
5/11/18
57.1°F
5/23/18
7.6°F
2/11/18
Pacific Satellite US Radar Satellite Imagery Sacramento,CA.  (click to enlarge)
NWS Weather Forecast - Summary
Updated: Sunday, May 27, 2018 - 3:30am PDT
Current Interstate Highway Conditions for I-80 & US-50

[I 80: IN THE SAN FRANCISCO BAY AREA - SOLANO CO]
no traffic restrictions are reported for this area.

[I 80: IN THE NORTHERN CALIFORNIA AREA & SIERRA NEVADA]
no traffic restrictions are reported for this area.

[US 50: IN THE SACRAMENTO VALLEY & THE LAKE TAHOE BASIN]
no traffic restrictions are reported for this area.
NWS Weather Forecast: Today and Tonight (Updated: Sun, 27-May-2018 2:19am PDT)
Today

Sunny
Sunny
Hi ≈78°F
NWS forecast: Sunny, with a high near 78. Northwest wind 5 to 12 mph.
Tonight

Mostly Clear
Mostly Clear
Lo ≈60°F
NWS forecast: Mostly clear, with a low around 60. Northeast wind 6 to 10 mph.
YR.NO 10 Day Weather forecast
Last update: 05/27/2018 @ 00:33
Next update: 05/27/2018 @ 13:00
Provided by: 22
      Temperature Precipitation Pressure Wind  
Today
05/27/2018
05:00 06:00 41°F   29.98 inHg Light breeze from east-northeast 7 mph
  06:00 12:00 43°F   29.97 inHg Light breeze from east-northeast 7 mph
  12:00 18:00 72°F   29.90 inHg Gentle breeze from west 8 mph
  18:00 00:00 73°F   29.86 inHg Light breeze from west 4 mph
    (Click to enlarge)
meteogram

    Forecast for next 9 days

      Temperature Precip Pressure Wind  
Monday
05/28/2018
00:00 06:00 50°F   29.93 inHg Light breeze from east-northeast 6 mph
  06:00 12:00 50°F   29.91 inHg Gentle breeze from east-northeast 9 mph
  12:00 18:00 79°F   29.92 inHg Light breeze from west-southwest 7 mph
  18:00 00:00 79°F   29.84 inHg Light air from west-southwest 3 mph
      Temperature Precip Pressure Wind  
Tuesday
05/29/2018
00:00 06:00 55°F   29.87 inHg Light breeze from east-northeast 6 mph
  06:00 12:00 54°F   29.81 inHg Gentle breeze from east-northeast 9 mph
  12:00 18:00 82°F   29.79 inHg Light breeze from southwest 7 mph
  17:00 23:00 81°F   29.71 inHg Light breeze from southwest 6 mph
  23:00 05:00 63°F   29.71 inHg Light breeze from east-southeast 6 mph
      Temperature Precip Pressure Wind  
Wednesday
05/30/2018
05:00 11:00 54°F   29.66 inHg Light breeze from east 4 mph
  11:00 17:00 70°F   29.69 inHg Gentle breeze from south-southwest 9 mph
  17:00 23:00 68°F   29.67 inHg Gentle breeze from south-southwest 10 mph
  23:00 05:00 50°F   29.71 inHg Light breeze from south-southeast 5 mph
      Temperature Precip Pressure Wind  
Thursday
05/31/2018
05:00 11:00 45°F   29.78 inHg Gentle breeze from south-southeast 9 mph
  11:00 17:00 54°F   29.85 inHg Gentle breeze from south 11 mph
  17:00 23:00 57°F   29.84 inHg Gentle breeze from southwest 8 mph
  23:00 05:00 46°F   29.92 inHg Light breeze from southeast 5 mph
      Temperature Precip Pressure Wind  
Friday
06/01/2018
05:00 11:00 41°F   29.94 inHg Light air from east 2 mph
  11:00 17:00 61°F   29.99 inHg Light breeze from west 5 mph
  17:00 23:00 66°F   29.99 inHg Light breeze from west 6 mph
  23:00 05:00 46°F   30.04 inHg Light breeze from east-northeast 6 mph
      Temperature Precip Pressure Wind  
Saturday
06/02/2018
05:00 11:00 50°F   30.00 inHg Gentle breeze from east-northeast 9 mph
  11:00 17:00 75°F   29.99 inHg Light breeze from west 6 mph
  17:00 23:00 79°F   29.94 inHg Light breeze from west 6 mph
  23:00 05:00 54°F   29.96 inHg Light breeze from east-northeast 5 mph
      Temperature Precip Pressure Wind  
Sunday
06/03/2018
05:00 11:00 46°F   29.91 inHg Light breeze from east-northeast 6 mph
  11:00 17:00 81°F   29.89 inHg Light breeze from west-southwest 5 mph
  17:00 23:00 82°F   29.80 inHg Light breeze from west-southwest 5 mph
  23:00 05:00 55°F   29.81 inHg Light breeze from east-northeast 6 mph
      Temperature Precip Pressure Wind  
Monday
06/04/2018
05:00 11:00 50°F   29.79 inHg Light breeze from east-northeast 7 mph
  11:00 17:00 86°F   29.78 inHg Light breeze from southwest 5 mph
  17:00 23:00 86°F   29.74 inHg Light breeze from southwest 6 mph
  23:00 05:00 57°F   29.79 inHg Light breeze from east-northeast 5 mph
      Temperature Precip Pressure Wind  
Tuesday
06/05/2018
05:00 11:00 57°F   29.76 inHg Light breeze from east-northeast 6 mph
  11:00 17:00 84°F   29.80 inHg Light breeze from southwest 6 mph
How Close Are We To this Month's Temperature Record ?
Updated Sunday, May 27, 2018- 6:20:00 AM

Current Temperature: 49.8°F

May's High: Temperature Record 86.5°F - Set on Tue, May 23, 2017 - 1:25:00 PM
We are currently 36.7°F Less than this Month's record High

May's Low: Temperature Record 39.2°F - Set on Fri, May 25, 2012 - 6:42:00 AM
We are currently 10.6°F More than this Month's record Low

Weather History For Sunday, May 27, 2018


On this Day - In Weather History ...
Data courtesy of weatherforyou.com
powered by Cumulus v1.9.3 (1059)
Ambient Weather VWS v14.00
Top Contact Website Map Copyright © 2007 - 2018 Foresthillweather.com Never base important decisions on this or any weather information obtained from the Internet